Theta_e
325 330 328 331 332 330 331 329 330 331 333 335 337 336 336 336 335 334 333 333 334 336 337 336 336 336 335 333 331 331 331 332 333 332 332 330 330 330 329 327 326 327 327
330 329 325 325 325 328 330 331 331 330 330 333 333 336 337 337 336 335 334 334 334 334 336 337 337 336 335 334 332 331 332 333 333 333 332 330 328 328 325 325 325 325 325
331 327 324 324 324 323 330 329 329 328 328 330 331 333 335 333 336 337 337 335 335 336 335 335 335 335 334 334 333 332 332 334 333 333 330 331 331 326 327 326 325 324 324
329 327 325 325 328 324 329 329 328 328 328 329 329 331 332 332 334 334 333 333 335 335 335 333 332 331 330 332 332 333 333 334 332 330 329 329 329 330 325 325 324 322 322
327 328 327 326 325 325 328 328 326 326 326 327 327 330 330 330 329 330 331 331 331 331 330 330 331 330 329 330 331 331 330 329 327 326 325 319 320 325 326 324 323 322 321
323 324 324 325 327 326 325 326 328 328 326 326 327 329 330 327 330 330 331 332 330 329 329 330 330 329 330 329 330 328 327 327 325 324 320 318 318 320 322 322 320 320 321
320 320 320 319 320 324 327 329 329 329 327 326 326 329 328 325 326 328 328 328 329 329 328 327 328 330 330 330 328 327 327 326 325 324 316 316 316 319 319 319 319 319 319
317 316 316 317 318 318 317 320 326 330 330 330 329 329 330 329 330 330 330 329 331 329 329 329 329 329 328 326 326 326 324 321 318 314 313 314 315 316 318 318 317 319 317
314 314 314 315 315 314 314 315 316 317 322 328 331 332 331 331 332 332 331 331 330 327 326 326 326 325 324 325 323 319 316 314 313 314 313 314 315 315 316 316 316 315 316
312 312 312 313 315 315 315 315 313 315 317 320 324 328 331 330 330 329 329 327 326 324 325 323 323 323 322 320 316 317 316 315 315 313 311 311 311 312 313 314 313 313 313
313 312 312 312 312 314 316 316 315 316 317 320 323 325 326 327 329 328 327 325 324 323 324 324 323 321 318 317 317 314 313 311 310 308 308 309 310 310 311 311 311 311 310
312 312 311 311 311 311 312 314 315 316 317 318 319 321 322 322 323 324 323 322 322 321 321 321 320 318 314 313 310 309 308 308 308 307 307 308 308 307 308 308 308 307 308
312 312 311 311 310 310 310 311 312 314 314 314 315 316 316 318 320 321 319 319 320 320 318 318 316 313 311 310 307 306 306 306 306 306 305 306 306 306 306 306 306 305 305
311 311 311 311 310 310 309 309 309 310 312 313 313 314 314 314 316 317 316 316 317 316 315 315 312 309 308 306 306 306 305 305 305 305 305 306 306 306 306 305 304 304 303
310 310 310 309 309 309 309 309 309 309 308 310 312 313 313 313 313 313 313 313 313 313 312 310 308 306 306 305 305 304 304 304 303 303 303 303 303 304 304 303 302 301 301
309 309 309 309 308 308 308 308 308 308 308 308 308 311 312 312 311 311 311 311 311 309 308 307 305 305 304 305 304 304 304 303 302 302 301 300 300 300 300 300 300 300 299
305 305 305 305 306 306 306 307 307 307 307 308 308 308 310 311 310 310 309 309 308 307 306 305 304 304 304 303 303 303 302 302 302 301 300 298 297 298 297 297 297 297 296
301 301 301 301 301 301 302 303 304 305 306 307 307 308 308 309 310 309 309 308 307 306 305 305 304 303 303 303 301 301 301 301 300 299 298 297 296 296 296 295 293 292 292
300 300 300 300 300 300 301 301 301 302 303 304 306 307 307 308 309 309 308 307 306 305 305 304 303 303 302 301 300 300 300 299 298 297 297 296 295 296 294 291 290 290 290
300 300 300 300 300 300 301 301 301 301 302 303 304 305 306 307 307 308 308 306 306 305 304 303 302 302 301 300 299 298 298 298 297 295 295 295 294 294 292 290 289 289 290
299 298 297 297 298 298 298 299 300 301 301 302 303 303 305 305 306 307 308 306 304 304 302 301 301 301 301 299 298 298 298 298 296 293 292 294 293 292 291 288 289 289 289
298 298 297 297 297 297 298 299 299 299 300 300 301 302 304 305 305 305 306 306 303 302 301 300 300 299 300 299 298 298 297 297 296 294 293 294 293 291 290 290 288 287 288
297 296 295 295 295 295 296 297 296 297 297 298 299 301 302 304 304 305 305 305 302 302 300 299 299 299 299 298 298 297 296 296 295 294 294 293 292 291 290 291 288 286 287
295 294 294 294 294 295 294 294 295 295 296 296 298 299 301 302 304 304 303 303 301 300 299 298 298 298 298 297 297 297 297 295 294 292 292 291 289 290 290 291 288 287 287
294 293 293 293 292 292 292 293 293 292 294 297 298 299 301 302 303 303 302 301 301 300 300 299 299 298 297 297 296 297 297 295 294 288 287 288 288 290 291 290 289 287 287
293 292 292 291 291 291 291 291 291 290 291 295 299 300 301 302 302 301 300 301 301 301 300 300 300 299 297 296 296 296 296 295 293 287 287 288 288 288 289 289 289 289 287
Wind_Speed
9 17 6 12 17 19 20 29 23 20 15 21 18 16 16 15 14 15 15 15 16 14 15 13 12 13 13 13 13 13 14 13 10 7 11 12 9 7 4 6 4 1 2
6 14 14 13 11 0 20 20 22 25 7 11 13 13 13 15 13 12 14 15 15 17 17 14 12 12 13 14 15 16 14 15 15 11 12 1 5 6 3 3 3 1 0
9 12 7 6 5 7 23 21 19 19 10 8 10 8 7 8 9 11 13 17 18 18 18 17 13 12 9 12 13 15 17 14 14 16 4 2 3 3 8 5 4 3 2
9 12 9 6 5 8 14 19 15 10 14 12 9 6 6 5 9 8 13 15 17 17 17 14 12 10 13 19 15 14 11 17 12 4 2 4 6 2 3 5 6 4 5
9 12 11 9 7 10 2 15 18 17 20 24 19 15 16 17 16 14 10 16 16 17 12 12 14 14 15 21 18 19 16 7 6 7 2 1 5 9 5 4 7 7 8
10 9 9 13 14 15 16 20 24 27 24 24 22 25 23 18 17 18 12 15 21 21 16 15 14 19 26 28 24 24 22 20 17 15 16 14 7 10 12 7 9 7 5
10 9 8 9 11 14 18 27 27 26 31 27 24 27 32 27 28 23 21 26 22 28 27 25 22 26 30 30 29 28 25 24 26 21 18 17 13 8 7 10 8 3 1
10 6 5 8 9 9 11 14 18 21 27 34 34 37 38 37 32 34 35 42 31 32 31 25 25 28 31 31 27 26 22 20 17 17 14 10 11 9 8 8 4 3 8
9 8 7 6 6 6 9 11 13 15 16 18 17 19 24 25 22 24 25 29 26 27 24 24 29 30 27 25 24 20 17 16 15 12 12 12 12 11 10 11 10 7 2
9 8 6 6 6 4 1 2 6 9 11 13 14 14 14 14 14 15 18 19 19 20 23 29 30 28 26 23 21 16 15 16 15 15 14 14 13 12 11 11 11 14 9
10 9 7 11 13 12 10 8 5 2 4 6 8 9 9 10 11 12 15 16 17 20 25 30 29 28 23 20 18 16 16 17 16 15 13 11 12 10 10 11 13 9 11
11 11 12 15 15 14 14 11 9 7 4 2 4 5 6 8 9 10 11 14 19 21 27 31 30 25 20 19 17 18 18 16 15 13 11 11 11 10 8 8 10 8 10
13 12 11 12 15 15 14 13 11 10 8 7 5 5 6 7 8 9 11 14 19 22 25 29 26 21 20 20 18 17 17 15 14 12 11 10 10 11 11 10 9 9 9
13 13 11 11 14 13 11 11 11 9 6 6 6 6 6 7 8 8 8 12 18 21 23 24 21 22 22 20 18 17 14 13 12 11 11 12 13 12 11 9 9 9 8
14 12 12 11 14 14 13 13 12 10 10 8 6 7 8 8 8 9 9 9 13 19 19 19 20 22 23 24 22 20 18 15 13 11 11 11 10 13 11 9 9 9 9
12 14 15 16 17 19 18 17 15 14 12 12 13 11 10 11 12 12 12 12 15 16 18 20 21 23 22 22 21 18 16 14 14 14 12 13 12 11 11 13 12 10 10
9 9 10 14 18 21 22 23 23 22 19 16 15 15 14 15 16 17 17 17 18 18 19 19 19 21 21 21 21 19 16 17 16 15 15 12 11 10 8 8 8 10 12
7 6 8 13 17 20 22 24 25 24 23 23 21 19 18 18 19 19 20 21 22 23 23 22 23 21 21 21 23 21 16 14 15 17 15 15 13 13 12 8 8 5 4
16 18 19 20 19 18 19 20 23 25 26 25 24 22 22 21 21 23 24 25 25 25 25 25 25 23 22 22 24 23 19 17 16 15 15 14 14 13 13 14 10 8 5
18 20 24 25 25 25 25 24 23 23 24 25 26 25 24 23 24 25 25 25 26 27 28 26 26 25 21 23 25 23 19 15 14 12 12 15 15 14 15 11 11 12 9
20 22 22 23 24 26 26 26 29 26 26 26 27 29 30 27 24 25 25 25 25 22 26 26 25 25 23 24 26 24 17 17 17 17 17 18 17 15 14 13 11 11 12
19 19 21 22 24 26 26 27 26 29 28 30 33 31 31 27 26 24 24 26 26 25 22 23 21 22 24 23 29 28 22 17 19 16 14 17 16 15 14 14 10 12 11
17 18 19 22 23 24 26 25 31 35 36 34 33 32 31 28 27 25 23 25 26 25 25 25 25 24 24 25 28 28 25 20 15 15 14 13 15 15 14 13 11 12 14
17 19 21 21 22 22 24 29 31 34 34 31 31 30 28 26 26 24 23 27 27 26 24 24 22 24 24 25 28 29 26 22 19 16 15 15 16 16 15 15 13 14 13
17 19 21 21 23 25 26 27 29 33 30 26 27 28 26 26 23 23 24 29 31 33 31 31 30 30 28 33 33 32 30 30 25 20 18 17 17 17 17 17 16 15 13
19 19 20 22 26 26 26 28 27 30 28 25 22 22 21 21 22 19 21 29 29 30 32 29 31 27 24 26 30 30 28 28 26 24 22 18 18 18 18 17 17 17 15
Wind_Direction
285 209 218 242 206 202 195 193 191 168 173 177 172 173 178 184 186 190 192 190 191 192 202 216 223 217 219 221 226 222 222 216 234 218 237 236 234 248 273 275 276 106 34
252 134 111 92 59 219 203 183 184 183 162 204 197 185 187 188 189 186 190 194 192 195 202 211 228 233 236 235 230 228 226 220 212 217 239 283 236 179 172 179 188 205 69
151 108 89 86 144 236 184 191 183 167 200 204 191 198 191 201 200 200 206 205 204 204 209 211 218 228 233 253 262 247 232 228 226 229 246 176 212 85 169 205 233 245 261
135 126 143 238 158 238 183 163 183 197 217 224 221 249 236 250 227 239 232 221 210 206 212 228 228 265 281 267 248 273 231 232 228 203 272 330 336 332 289 185 212 219 222
162 136 141 199 221 255 210 159 173 199 235 237 240 246 254 258 255 255 244 231 232 234 231 225 238 259 270 257 255 240 248 205 151 134 111 267 316 284 277 255 187 198 216
122 120 132 200 220 217 209 206 209 215 210 214 242 254 250 268 249 235 237 259 252 243 242 234 251 265 239 236 233 223 195 181 197 206 209 205 181 203 228 241 256 261 184
116 132 167 193 204 207 217 220 222 219 218 219 224 246 248 243 249 257 280 274 255 250 246 253 255 241 230 220 210 203 218 211 204 207 203 210 216 249 281 300 310 314 253
106 113 133 192 191 203 214 217 221 232 221 226 224 237 243 247 254 249 239 242 241 238 243 234 233 232 214 203 211 208 201 200 197 192 186 207 224 224 227 236 259 269 235
122 130 136 156 148 190 215 221 222 223 224 227 224 220 228 233 235 227 229 226 230 231 230 218 212 208 198 194 197 200 196 195 198 200 204 204 213 212 211 219 219 222 253
93 99 92 90 96 97 131 240 246 243 231 224 222 220 219 228 224 218 217 210 211 216 204 202 202 198 194 191 189 203 210 206 211 215 206 205 215 218 217 220 229 224 235
73 71 72 67 53 47 41 43 41 298 267 246 235 229 220 220 217 217 209 204 204 210 203 199 196 189 191 198 202 204 208 204 206 207 206 206 206 208 210 208 210 214 227
61 56 49 36 34 30 32 31 27 31 19 307 266 253 228 224 219 214 206 205 202 207 205 198 192 194 195 192 192 196 200 198 204 210 207 203 210 216 216 217 214 213 226
46 50 44 42 35 25 18 16 24 19 3 349 327 298 274 255 235 216 210 205 208 207 198 193 190 189 193 197 194 198 196 201 211 213 213 211 209 211 210 208 214 219 224
40 34 29 29 25 21 16 13 7 6 355 341 323 303 287 273 265 254 226 213 206 192 187 193 190 190 193 192 192 200 198 198 198 202 201 203 202 206 210 217 220 221 228
33 23 14 5 358 359 358 358 353 344 337 321 292 271 266 261 251 238 224 218 210 202 195 191 193 188 193 193 194 192 192 188 195 197 196 195 194 202 195 208 223 222 221
8 357 353 348 345 342 340 337 331 329 320 308 298 283 256 240 238 239 228 214 205 202 199 192 189 191 195 203 197 194 197 194 195 197 191 206 204 208 209 212 215 206 223
345 335 331 325 322 322 323 322 322 320 314 303 295 286 270 257 236 221 215 213 210 202 198 197 196 198 204 207 197 185 191 194 196 196 197 188 187 192 199 211 219 226 225
331 317 314 307 305 306 307 310 309 307 307 306 302 294 281 258 242 234 222 209 204 203 201 199 200 199 201 207 194 191 191 197 199 202 197 195 190 187 190 185 205 214 219
335 332 330 325 321 317 312 308 302 299 299 296 294 292 288 279 260 239 225 213 204 200 199 201 202 198 200 203 192 188 195 198 198 199 197 194 193 198 193 185 187 187 197
330 331 328 323 324 326 324 320 310 302 294 288 290 290 283 276 268 250 231 219 211 204 200 199 204 205 198 203 195 191 193 192 191 193 200 202 198 199 198 184 187 188 182
328 328 328 325 322 321 318 313 307 300 298 295 290 286 282 272 265 260 245 222 211 204 194 193 193 197 194 204 194 192 192 199 187 195 195 202 198 195 192 183 196 194 187
322 321 319 317 314 314 310 301 297 298 296 297 287 279 278 268 265 249 243 223 203 197 197 186 187 192 191 199 196 196 191 193 194 194 202 202 195 188 186 194 186 191 171
321 325 321 314 310 307 306 305 304 300 293 287 281 275 269 266 258 246 231 220 204 202 190 191 182 181 187 189 198 196 196 196 189 194 189 188 190 182 185 190 195 182 178
325 322 317 310 314 317 314 306 303 311 294 280 276 276 271 263 259 245 226 216 209 203 199 189 189 178 181 185 188 193 194 197 193 189 185 187 180 181 188 191 190 188 191
318 316 314 315 315 317 317 316 313 318 321 290 278 271 265 262 255 239 224 219 220 209 200 196 190 182 182 192 189 185 186 193 196 181 176 174 174 179 191 188 192 197 195
315 314 314 313 318 317 318 322 323 323 319 316 299 277 263 253 241 229 232 225 221 220 215 205 194 192 189 183 188 191 190 193 186 175 171 178 180 184 190 189 188 199 200